Starlink 32627

operational
NORAD ID: 62315 Int'l Des: 2024-239 Owner: SPXS Country: US Constellation: starlink
LEOCIRCULAR

Über Starlink 32627

Beschreibung wird geladen...

Live-Position

3D-Globus wird geladen...

Nächste Überflüge

Höhenverlauf

Altitude vs Time

uPlot chart will show altitude changes over time

Zweizeiliger Elementsatz

1 62315U 24239Q 25260.43318576 .00023537 00000-0 80388-3 0 9999
2 62315 53.1618 278.9111 0000475 94.6623 265.4432 15.30215922 42853
Epoch: 17. Sept. 2025 • Age: 25 hours

Aktueller Status

Höhe 476.6 km
Geschwindigkeit 7.63 km/s
Subsatellitenpunkt -3.92°S, 101.66°E
Startdatum 13. Dez. 2024
Alter 0.7 years
Typ internet

Technische Details

Klassifizierung Payload
Masse 730.00 kg
Trockenmasse 700.00 kg
Gesamtmasse 730.00 kg
Länge 0.30 m
Durchmesser 4.10 m
Spannweite 29.00 m
Form Box + pan
Hersteller SPXS
Bus-Typ Starlink V2M
Phasenstatus In Orbit
Besitzer/Staat SPXS/US

Große Konstellationen

Loading constellations...